Location: Croagnes
(43.9363°N, 5.3265°E)
Time: 07:52:48
(UTC+00:00)

Cosmos 1242 Rocket - Pass Details

Date: 06 June 2020
Orbit: 447 x 488 km, 81.2° (Epoch: 07 July)

Event Time Altitude Azimuth Distance (km) Brightness Sun altitude
Exits shadow 21:52:23 16° 229° (SW) 1,339 4.6 -19.1°
Maximum altitude 21:54:46 32° 286° (WNW) 859 4.1 -19.3°
Drops below altitude 10° 21:58:07 10° 351° (N) 1,684 6.4 -19.5°
Sets 22:00:24 0° 2° (N) 2,568 7.4 -19.7°
